FW5640 Weather Reports


time (UTC)temp
F
wind
direction
speed
knots
gust
knots
rain 1hr
in
rain 24hr
in
rain mn
in
humidity
%
barometer
mb
20260510095002 72 28 0.0 0.0 0.00 0.01 0.01 97 1014.8
20260510094457 72 29 0.0 0.0 0.00 0.01 0.01 97 1014.5
20260510093953 72 29 0.0 0.0 0.00 0.01 0.01 97 1014.4
20260510093449 72 28 0.0 0.0 0.00 0.01 0.01 97 1014.4
20260510092945 72 28 0.0 0.0 0.00 0.01 0.01 97 1014.4
20260510092443 72 28 0.0 0.0 0.00 0.01 0.01 97 1014.5
20260510091942 72 28 0.0 0.0 0.00 0.01 0.01 97 1014.4
20260510091440 72 28 0.0 0.0 0.00 0.01 0.01 97 1014.4
20260510090936 72 28 0.0 0.0 0.00 0.01 0.01 97 1014.1
20260510090433 72 28 0.0 0.0 0.00 0.01 0.01 97 1014.2
20260510085928 72 28 0.0 0.0 0.00 0.01 0.01 97 1014.3
20260510085424 72 28 0.0 0.0 0.00 0.01 0.01 97 1013.9
20260510084919 72 27 0.0 0.0 0.00 0.01 0.01 97 1014.1
20260510084417 72 27 0.0 0.0 0.07 0.01 0.01 97 1014.2
20260510083913 72 90 0.0 0.0 0.07 0.01 0.01 97 1014.2
20260510083410 72 90 0.9 0.9 0.00 0.00 0.00 97 1013.9
20260510082905 72 89 0.9 0.9 0.00 0.00 0.00 97 1013.5
20260510082404 72 93 0.9 0.9 0.00 0.00 0.00 97 1013.8
20260510081902 72 56 0.0 0.9 0.00 0.00 0.00 97 1014.1
20260510081358 72 56 0.9 0.0 0.00 0.00 0.00 97 1014.3
20260510080855 72 23 0.9 0.9 0.00 0.00 0.00 97 1014.6
20260510080348 72 317 1.7 2.6 0.00 0.00 0.00 97 1014.6
20260510075846 72 276 2.6 2.6 0.00 0.00 0.00 97 1014.6
20260510075344 72 210 0.9 0.9 0.00 0.00 0.00 97 1014.4
20260510074840 72 142 0.9 0.9 0.00 0.00 0.00 97 1013.7
20260510074337 72 121 4.3 5.2 0.00 0.00 0.00 97 1013.0
20260510073833 71 91 2.6 2.6 0.00 0.00 0.00 97 1013.1
20260510073329 71 86 0.0 0.9 0.00 0.00 0.00 97 1013.6
20260510072825 71 75 0.0 0.0 0.00 0.00 0.00 97 1014.0
20260510072323 71 79 0.0 0.0 0.00 0.00 0.00 97 1014.1
20260510071819 71 92 0.0 0.0 0.00 0.00 0.00 96 1014.3
20260510071315 71 98 0.0 0.0 0.00 0.00 0.00 96 1014.2
20260510070814 71 88 0.0 0.0 0.00 0.00 0.00 96 1014.1
20260510070310 71 89 0.0 0.0 0.00 0.00 0.00 96 1013.9
20260510065810 71 89 0.0 0.0 0.00 0.00 0.00 96 1013.7
20260510065307 71 150 0.0 0.0 0.00 0.00 0.00 96 1013.9
20260510064804 71 150 0.0 0.0 0.00 0.00 0.00 96 1013.6
20260510064302 71 151 0.0 0.0 0.00 0.00 0.00 96 1014.0
20260510063757 71 151 0.0 0.0 0.00 0.00 0.00 96 1014.1
20260510063254 71 151 0.0 0.0 0.00 0.00 0.00 96 1014.2
20260510062751 71 151 0.0 0.0 0.00 0.00 0.00 96 1014.2
20260510062247 71 151 0.0 0.0 0.00 0.00 0.00 96 1014.2
20260510061742 71 151 0.0 0.0 0.00 0.00 0.00 96 1014.2
20260510061240 71 151 0.0 0.0 0.00 0.00 0.00 96 1014.3
20260510060735 71 151 0.0 0.0 0.00 0.00 0.00 96 1014.3
20260510060233 71 151 0.0 0.0 0.00 0.00 0.00 96 1014.6
20260510055729 71 151 0.0 0.0 0.00 0.00 0.00 96 1014.5
20260510055227 71 151 0.0 0.0 0.00 0.00 0.00 96 1014.6
20260510054721 71 151 0.0 0.0 0.00 0.00 0.00 96 1014.6
20260510054218 71 151 0.0 0.0 0.00 0.00 0.00 96 1014.9
20260510053717 71 151 0.0 0.0 0.00 0.00 0.00 96 1014.6
20260510053214 71 151 0.0 0.0 0.00 0.00 0.00 96 1015.0
20260510052709 71 151 0.0 0.0 0.00 0.00 0.00 96 1014.9
20260510052206 71 151 0.0 0.0 0.00 0.00 0.00 96 1015.0
20260510051702 71 151 0.0 0.0 0.00 0.00 0.00 96 1015.1
20260510051159 71 151 0.0 0.0 0.00 0.00 0.00 96 1015.3
20260510050656 71 151 0.0 0.0 0.00 0.00 0.00 96 1015.2
20260510050153 71 151 0.0 0.0 0.00 0.00 0.00 96 1015.3
20260510045649 71 151 0.0 0.0 0.00 0.00 0.00 96 1015.1
20260510045147 71 151 0.0 0.0 0.00 0.00 0.00 96 1015.2
20260510044642 71 151 0.0 0.0 0.00 0.00 0.00 96 1015.3
20260510044140 71 151 0.0 0.0 0.00 0.00 0.00 96 1015.2
20260510043636 71 151 0.0 0.0 0.00 0.00 0.00 96 1015.3
20260510043132 71 151 0.0 0.0 0.00 0.00 0.00 96 1015.1
20260510042630 71 151 0.0 0.0 0.00 0.00 0.00 96 1015.2
20260510042126 71 151 0.0 0.0 0.00 0.00 0.00 96 1015.2
20260510041623 71 151 0.0 0.0 0.00 0.00 0.00 96 1015.3
20260510041120 71 151 0.0 0.0 0.00 0.00 0.00 96 1015.2
20260510040618 71 151 0.0 0.0 0.00 0.00 0.00 96 1015.0
20260510040114 71 151 0.0 0.0 0.00 0.00 0.00 96 1015.1
20260510035609 71 151 0.0 0.0 0.00 0.22 0.22 96 1014.9
20260510035104 71 151 0.0 0.0 0.00 0.22 0.22 96 1015.1
20260510034602 71 151 0.0 0.0 0.00 0.22 0.22 96 1015.0
20260510034059 71 131 0.9 0.9 0.00 0.22 0.22 96 1015.4
20260510033555 71 57 0.0 0.0 0.00 0.22 0.22 96 1015.5
20260510033053 71 56 0.0 0.0 0.00 0.22 0.22 96 1015.3
20260510032549 71 54 0.0 0.0 0.00 0.22 0.22 95 1015.5
20260510032044 71 54 0.0 0.0 0.00 0.22 0.22 95 1015.0
20260510031539 71 59 0.0 0.0 0.00 0.22 0.22 95 1015.2
20260510031035 71 69 0.9 0.9 0.00 0.22 0.22 95 1015.2
20260510030531 71 73 0.9 0.9 0.00 0.22 0.22 95 1014.7
20260510030029 71 349 0.9 0.9 0.00 0.22 0.22 95 1014.9
20260510025525 71 110 0.0 0.0 0.00 0.22 0.22 95 1014.8
20260510025023 71 125 0.0 0.0 0.00 0.22 0.22 95 1015.0
20260510024520 71 124 0.0 0.0 0.00 0.22 0.22 95 1014.7
20260510024015 71 126 0.0 0.0 0.00 0.22 0.22 95 1014.7
20260510023511 71 127 0.0 0.0 0.00 0.22 0.22 95 1014.6
20260510023009 71 126 0.0 0.0 0.00 0.22 0.22 95 1014.5
20260510022508 71 61 0.9 0.9 0.00 0.22 0.22 95 1014.4
20260510022008 71 233 0.0 0.0 0.00 0.22 0.22 95 1014.3
20260510021505 71 233 0.0 0.0 0.00 0.22 0.22 95 1014.2
20260510021002 71 232 0.0 0.0 0.00 0.22 0.22 95 1014.4
20260510020456 71 228 0.9 0.9 0.00 0.22 0.22 95 1014.4
20260510015952 71 218 0.9 0.9 0.00 0.22 0.22 95 1014.6
20260510015448 71 283 1.7 1.7 0.00 0.22 0.22 95 1014.3
20260510014944 71 228 1.7 1.7 0.00 0.22 0.22 95 1014.4
20260510014442 71 206 0.9 0.9 0.00 0.22 0.22 95 1014.2
20260510013938 71 215 0.0 0.0 0.00 0.22 0.22 94 1014.2
20260510013432 71 215 0.0 0.0 0.00 0.22 0.22 94 1013.6
20260510012928 71 215 0.0 0.0 0.00 0.22 0.22 94 1014.1
20260510012423 71 215 0.0 0.0 0.00 0.22 0.22 94 1013.8
20260510011918 71 215 0.0 0.0 0.00 0.22 0.22 94 1014.0
20260510011414 71 215 0.9 0.9 0.00 0.22 0.22 94 1014.1
20260510010910 71 171 0.9 0.9 0.00 0.22 0.22 94 1013.9
20260510010408 71 165 0.0 0.0 0.00 0.22 0.22 94 1013.5
20260510005904 71 146 0.9 1.7 0.00 0.22 0.22 94 1013.5
20260510005400 71 163 0.0 0.0 0.00 0.22 0.22 94 1013.4
20260510004858 71 163 0.0 0.0 0.00 0.22 0.22 94 1013.5
20260510004355 71 163 0.9 0.9 0.00 0.22 0.22 94 1013.5
20260510003853 71 155 1.7 1.7 0.00 0.22 0.22 93 1013.9
20260510003350 71 185 0.0 0.0 0.05 0.22 0.22 93 1013.7
20260510002848 71 184 0.9 0.9 0.05 0.22 0.22 93 1014.0
20260510002346 72 173 0.9 0.9 0.00 0.21 0.21 93 1013.7
20260510001842 72 225 0.9 0.9 0.00 0.21 0.21 93 1014.2
20260510001341 72 235 0.0 0.0 0.00 0.21 0.21 93 1014.1
20260510000836 72 235 0.9 0.9 0.00 0.21 0.21 93 1014.1
20260510000334 72 203 0.0 0.9 0.00 0.21 0.21 93 1014.0
20260509235830 72 202 0.0 0.0 0.00 0.21 0.21 92 1013.9
20260509235327 72 202 0.0 0.0 0.00 0.21 0.21 92 1013.9
20260509234823 72 359 0.0 0.0 0.00 0.21 0.21 92 1014.0
20260509234320 72 31 0.0 0.0 0.00 0.21 0.21 92 1013.8
20260509233818 72 32 0.0 0.0 0.00 0.21 0.21 92 1013.8
20260509233315 72 33 0.0 0.9 0.00 0.21 0.21 91 1013.7
20260509232811 72 34 0.0 0.0 0.00 0.21 0.21 91 1013.8
20260509232309 72 108 0.9 0.9 0.00 0.21 0.21 90 1013.7
20260509231804 72 124 0.0 0.0 0.00 0.21 0.21 90 1013.7
20260509231301 72 101 0.0 0.0 0.00 0.21 0.21 90 1013.8
20260509230759 72 102 0.0 0.0 0.00 0.21 0.21 90 1013.7
20260509230257 72 125 1.7 1.7 0.00 0.21 0.21 91 1013.8
20260509225751 72 101 0.0 0.0 0.00 0.21 0.21 91 1013.8
20260509225248 72 124 2.6 1.7 0.00 0.21 0.21 92 1013.7
20260509224743 71 93 0.9 0.9 0.00 0.21 0.21 92 1013.8
20260509224241 71 80 1.7 1.7 0.00 0.21 0.21 92 1013.8
20260509223738 71 98 1.7 1.7 0.00 0.21 0.21 93 1013.7
20260509223235 71 77 0.9 0.9 0.00 0.21 0.21 93 1013.7
20260509222731 72 83 0.9 0.9 0.00 0.21 0.21 93 1013.6
20260509222226 72 93 0.9 0.9 0.00 0.21 0.21 94 1013.4
20260509221722 72 100 0.0 0.0 0.00 0.21 0.21 93 1013.5
20260509221219 72 113 0.0 0.0 0.00 0.21 0.21 94 1013.5
20260509220715 72 123 0.9 0.9 0.00 0.21 0.21 94 1013.4
20260509220212 72 152 0.0 0.9 0.00 0.21 0.21 94 1013.5
20260509215707 72 152 0.9 1.7 0.00 0.21 0.21 94 1013.7
20260509215204 72 145 0.9 0.9 0.00 0.21 0.21 94 1013.6
20260509214701 72 205 0.9 1.7 0.00 0.21 0.21 94 1013.5
20260509214158 72 87 0.0 0.0 0.00 0.21 0.21 94 1013.8
20260509213655 72 353 2.6 2.6 0.00 0.21 0.21 94 1013.6
20260509213150 72 37 0.9 0.9 0.00 0.21 0.21 94 1013.3
20260509212648 72 42 1.7 1.7 0.00 0.21 0.21 94 1013.6
20260509212145 72 79 1.7 1.7 0.00 0.21 0.21 94 1013.6
20260509211641 72 14 0.9 1.7 0.00 0.21 0.21 94 1013.8
20260509211138 72 8 2.6 2.6 0.07 0.21 0.21 94 1013.7
20260509210635 72 52 2.6 2.6 0.07 0.21 0.21 93 1014.0
20260509210132 72 84 0.0 0.9 0.05 0.20 0.20 94 1014.1
20260509205627 72 64 0.9 0.9 0.05 0.20 0.20 93 1013.9
20260509205121 72 29 0.9 1.7 0.00 0.19 0.19 93 1014.0
20260509204618 72 358 0.9 0.9 0.00 0.19 0.19 93 1014.1
20260509204114 72 3 1.7 2.6 0.00 0.19 0.19 93 1013.9
20260509203610 72 323 4.3 6.1 0.07 0.19 0.19 93 1013.8
20260509203108 72 335 2.6 2.6 0.07 0.19 0.19 93 1013.6
20260509202603 72 29 0.9 1.7 0.05 0.18 0.18 93 1013.7
20260509202058 72 346 2.6 2.6 0.05 0.18 0.18 92 1013.6
20260509201553 72 304 2.6 2.6 0.00 0.17 0.17 92 1013.5
20260509201052 72 51 2.6 4.3 0.07 0.17 0.17 92 1013.5
20260509200550 72 323 4.3 6.1 0.24 0.17 0.17 91 1013.8
20260509200048 72 271 3.5 5.2 0.24 0.16 0.16 91 1013.7
20260509195543 73 10 4.3 7.0 0.12 0.14 0.14 90 1013.6
20260509195037 74 319 4.3 6.1 0.12 0.12 0.12 90 1013.7
20260509194532 74 80 1.7 1.7 0.12 0.11 0.11 90 1013.5
20260509194031 75 293 3.5 5.2 0.19 0.10 0.10 89 1013.6
20260509193530 75 193 0.9 0.9 0.24 0.09 0.09 89 1013.4
20260509193027 75 167 2.6 2.6 0.17 0.07 0.07 88 1013.3
20260509192524 75 209 2.6 2.6 0.05 0.05 0.05 88 1013.5
20260509192019 75 179 4.3 4.3 0.00 0.04 0.04 87 1013.4
20260509191514 75 142 3.5 2.6 0.00 0.04 0.04 86 1013.5
20260509191010 75 157 3.5 5.2 0.00 0.04 0.04 85 1013.3
20260509190507 75 173 4.3 4.3 0.00 0.04 0.04 84 1013.2
20260509190006 76 191 2.6 2.6 0.00 0.04 0.04 83 1013.1
20260509185502 76 159 2.6 2.6 0.00 0.04 0.04 84 1013.3
20260509184958 76 156 2.6 2.6 0.00 0.04 0.04 84 1013.4
20260509184457 76 168 5.2 6.1 0.00 0.04 0.04 83 1013.4
20260509183952 76 188 4.3 5.2 0.00 0.04 0.04 82 1013.4
20260509183447 76 86 1.7 2.6 0.00 0.04 0.04 84 1013.6
20260509182944 76 121 1.7 2.6 0.00 0.04 0.04 84 1013.6
20260509182440 75 96 4.3 6.1 0.00 0.04 0.04 84 1013.6
20260509181937 76 133 4.3 5.2 0.00 0.04 0.04 84 1013.6
20260509181435 75 106 3.5 6.1 0.00 0.04 0.04 84 1013.5
20260509180933 76 97 5.2 6.1 0.00 0.04 0.04 83 1013.6
20260509180428 76 94 4.3 5.2 0.00 0.04 0.04 83 1013.5
20260509175925 76 92 4.3 4.3 0.00 0.04 0.04 82 1013.7
20260509175421 76 121 4.3 5.2 0.00 0.04 0.04 83 1013.8
20260509174917 76 106 3.5 4.3 0.00 0.04 0.04 82 1013.9
20260509174414 76 118 4.3 4.3 0.00 0.04 0.04 82 1013.7
20260509173909 76 112 3.5 5.2 0.00 0.04 0.04 82 1014.0
20260509173404 76 130 5.2 5.2 0.00 0.04 0.04 81 1013.9
20260509172900 76 105 4.3 5.2 0.00 0.04 0.04 82 1013.7
20260509172357 75 100 3.5 4.3 0.00 0.04 0.04 82 1013.8
20260509171853 76 105 3.5 4.3 0.00 0.04 0.04 82 1013.8
20260509171349 76 108 3.5 4.3 0.00 0.04 0.04 81 1014.0
20260509170846 77 107 3.5 4.3 0.00 0.04 0.04 79 1014.3
20260509170341 77 101 3.5 4.3 0.00 0.04 0.04 78 1014.1
20260509165836 77 132 3.5 4.3 0.00 0.04 0.04 79 1014.0
20260509165331 77 120 2.6 4.3 0.00 0.04 0.04 79 1014.1
20260509164827 77 82 2.6 4.3 0.00 0.04 0.04 80 1014.0
20260509164324 78 108 4.3 5.2 0.00 0.04 0.04 77 1014.2
20260509163820 77 83 1.7 1.7 0.00 0.04 0.04 77 1014.5
20260509163316 78 82 3.5 4.3 0.00 0.04 0.04 76 1014.3
20260509162816 78 101 0.9 0.9 0.00 0.04 0.04 75 1014.4
20260509162309 80 89 1.7 2.6 0.00 0.04 0.04 73 1014.3
20260509161805 79 122 0.9 0.9 0.00 0.04 0.04 74 1014.5
20260509161301 78 96 0.0 0.0 0.00 0.04 0.04 76 1014.4
20260509160757 78 135 0.0 0.9 0.00 0.04 0.04 76 1014.1
20260509160253 78 94 0.0 0.0 0.00 0.04 0.04 76 1014.0
20260509155748 78 90 2.6 4.3 0.00 0.04 0.04 76 1013.9
20260509155245 78 99 0.0 0.9 0.00 0.04 0.04 75 1013.8
20260509154741 79 98 1.7 1.7 0.00 0.04 0.04 73 1014.1
20260509154239 79 154 0.9 0.9 0.00 0.04 0.04 73 1014.2
20260509153736 79 344 0.9 1.7 0.00 0.04 0.04 73 1014.3
20260509153231 78 109 0.9 0.9 0.00 0.04 0.04 73 1014.4
20260509152728 77 115 0.9 0.9 0.00 0.04 0.04 74 1014.5
20260509152224 76 73 0.0 0.0 0.00 0.04 0.04 76 1014.5
20260509151721 76 333 0.9 1.7 0.00 0.04 0.04 76 1014.6
20260509151218 76 145 0.9 0.9 0.00 0.04 0.04 78 1014.4
20260509150716 75 15 1.7 1.7 0.00 0.04 0.04 79 1014.9
20260509150214 75 26 1.7 2.6 0.00 0.04 0.04 79 1015.1
20260509145710 75 9 1.7 1.7 0.00 0.04 0.04 79 1015.0
20260509145206 75 66 1.7 1.7 0.00 0.04 0.04 79 1015.2
20260509144702 75 13 2.6 2.6 0.00 0.04 0.04 79 1015.3
20260509144200 76 316 1.7 2.6 0.00 0.04 0.04 79 1014.9
20260509143657 76 7 1.7 1.7 0.00 0.04 0.04 78 1014.8
20260509143154 77 138 0.9 0.9 0.00 0.04 0.04 78 1014.6
20260509142649 77 172 0.9 1.7 0.00 0.04 0.04 77 1014.8
20260509142146 77 6 0.9 0.9 0.00 0.04 0.04 75 1014.7
20260509141642 77 53 0.9 0.9 0.00 0.04 0.04 76 1014.6
20260509141138 76 276 1.7 2.6 0.00 0.04 0.04 77 1015.0
20260509140635 76 305 2.6 4.3 0.00 0.04 0.04 77 1014.8
20260509140133 76 61 0.9 0.9 0.00 0.04 0.04 79 1014.5
20260509135630 75 84 0.9 0.9 0.00 0.04 0.04 79 1014.5
20260509135129 75 288 2.6 2.6 0.00 0.04 0.04 80 1014.7
20260509134625 75 275 0.0 0.0 0.00 0.04 0.04 80 1014.6
20260509134122 75 292 0.9 0.9 0.00 0.04 0.04 80 1014.5
20260509133620 74 25 0.9 0.9 0.00 0.04 0.04 80 1014.5
20260509133117 74 29 0.0 0.0 0.00 0.04 0.04 81 1014.0
20260509132615 74 328 1.7 1.7 0.00 0.04 0.04 82 1014.1
20260509132113 74 85 0.0 0.0 0.00 0.04 0.04 83 1014.2
20260509131608 74 19 1.7 1.7 0.00 0.04 0.04 84 1013.9
20260509131106 73 334 0.0 0.0 0.00 0.04 0.04 84 1014.0
20260509130601 73 309 0.9 1.7 0.00 0.04 0.04 84 1014.2
20260509130058 74 326 3.5 5.2 0.00 0.04 0.04 84 1014.2
20260509125555 74 317 0.9 0.9 0.00 0.04 0.04 84 1014.1
20260509125052 74 15 0.9 0.9 0.00 0.04 0.04 84 1013.9
20260509124548 74 60 0.9 0.9 0.00 0.04 0.04 84 1013.8
20260509124045 73 55 0.9 0.9 0.00 0.04 0.04 86 1013.8
20260509123543 73 55 0.0 0.0 0.00 0.04 0.04 87 1013.7
20260509123039 72 40 0.9 0.9 0.00 0.04 0.04 88 1013.9
20260509122536 72 4 0.9 0.9 0.00 0.04 0.04 89 1013.7
20260509122033 71 16 0.9 1.7 0.00 0.04 0.04 90 1013.9
20260509121529 71 51 0.0 0.0 0.00 0.04 0.04 90 1013.9
20260509121027 71 56 0.9 0.9 0.00 0.04 0.04 91 1013.9
20260509120525 71 340 1.7 1.7 0.00 0.04 0.04 91 1013.7
20260509120023 71 351 1.7 1.7 0.00 0.04 0.04 91 1013.8
20260509115520 70 14 0.9 0.9 0.00 0.04 0.04 91 1013.6
20260509115018 70 57 0.9 0.9 0.00 0.04 0.04 91 1013.6
20260509114515 70 57 0.0 0.0 0.00 0.04 0.04 91 1013.6
20260509114014 70 333 2.6 2.6 0.00 0.04 0.04 91 1013.5
20260509113512 69 12 1.7 1.7 0.00 0.04 0.04 91 1013.7
20260509113010 69 43 3.5 4.3 0.00 0.04 0.04 91 1013.6
20260509112506 69 321 0.9 1.7 0.00 0.04 0.04 91 1013.6
20260509112002 69 316 2.6 1.7 0.00 0.04 0.04 91 1013.3
20260509111500 69 304 1.7 1.7 0.00 0.04 0.04 91 1013.2
20260509110957 69 324 0.9 0.9 0.00 0.04 0.04 90 1013.0
20260509110453 69 344 0.9 0.9 0.00 0.04 0.04 90 1013.0
20260509105951 69 336 0.9 0.9 0.00 0.04 0.04 90 1013.1
20260509105449 69 315 1.7 1.7 0.00 0.04 0.04 90 1013.0
20260509104946 69 301 0.9 0.9 0.00 0.04 0.04 90 1012.6
20260509104443 69 308 2.6 1.7 0.00 0.04 0.04 89 1012.6
20260509103940 70 304 3.5 2.6 0.00 0.04 0.04 89 1012.7
20260509103438 70 277 2.6 2.6 0.00 0.04 0.04 88 1012.6
20260509102936 70 296 1.7 1.7 0.00 0.04 0.04 88 1012.5
20260509102433 70 209 0.9 0.9 0.00 0.04 0.04 87 1012.6
20260509101929 71 321 2.6 4.3 0.00 0.04 0.04 86 1012.6
20260509101425 71 303 1.7 1.7 0.00 0.04 0.04 87 1012.2
20260509100923 71 183 0.9 0.9 0.00 0.04 0.04 87 1011.8
20260509100420 71 190 3.5 5.2 0.00 0.04 0.04 87 1011.5
20260509095916 71 185 4.3 4.3 0.00 0.04 0.04 87 1011.7
20260509095414 71 172 4.3 6.1 0.00 0.04 0.04 87 1011.9